RH
6 7 7 8 9 12 15 18 22 26 23 20 30 40 30 21 18 29 44 19 19 17 17 22 32 50 57 70 92 68 54 38 70 75 98 97 95 96 95 96 92 91 78 59 48
11 11 9 8 7 7 8 10 17 21 25 28 23 27 35 34 21 18 43 42 43 36 26 30 46 63 74 79 63 78 67 58 96 99 96 95 92 95 89 88 96 90 58 46 40
19 19 20 19 18 16 12 8 7 10 19 25 26 28 23 28 33 27 40 42 43 54 50 42 51 68 76 82 67 65 70 96 91 98 97 87 76 92 85 72 92 77 58 46 34
28 26 26 27 28 26 24 22 17 11 8 10 24 25 27 24 20 32 39 35 41 42 53 64 74 80 83 71 76 68 75 100 100 100 100 95 100 86 79 78 71 74 39 33 19
38 38 37 35 34 34 32 30 28 26 22 13 8 11 16 13 19 41 47 42 46 45 46 51 62 75 72 75 72 66 70 98 96 96 94 88 82 78 72 78 56 41 35 20 9
29 28 31 33 34 34 33 31 32 32 29 27 22 15 12 10 25 37 43 49 40 47 46 48 43 60 71 73 70 61 64 72 84 81 76 65 69 68 70 91 56 36 23 9 8
19 18 20 20 20 22 22 25 28 28 28 30 29 26 21 11 31 32 33 44 52 43 59 46 67 55 48 54 54 60 52 57 69 79 64 57 49 46 57 56 33 21 11 7 9
15 14 14 13 14 15 15 15 14 15 18 22 24 27 18 20 20 20 36 34 48 52 41 65 53 50 32 23 29 45 53 48 60 58 63 54 42 45 51 40 22 10 8 7 8
15 13 12 13 15 15 15 14 12 8 8 9 9 12 14 15 23 26 21 41 44 49 55 48 50 37 32 24 18 14 26 33 38 44 43 42 36 39 32 18 11 8 8 8 10
12 12 13 15 15 15 14 14 12 9 6 4 4 7 8 8 9 20 28 19 41 44 46 52 50 43 31 22 8 6 8 12 20 25 26 28 27 25 19 12 9 9 10 11 13
10 12 14 14 14 8 5 5 7 7 6 5 4 4 4 4 5 6 22 28 18 44 46 37 48 37 20 25 22 21 20 17 18 19 19 17 18 13 13 12 13 12 14 16 17
8 8 11 11 7 6 5 5 4 4 4 5 4 4 3 4 3 6 10 23 28 20 31 51 27 21 50 51 42 33 26 22 23 29 31 22 13 13 12 11 14 16 16 18 25
6 8 11 8 6 5 3 2 2 2 2 3 3 4 3 2 3 7 17 28 27 33 21 23 18 38 35 55 58 38 31 28 27 28 31 27 13 12 12 14 14 16 19 22 29
8 8 9 7 4 2 1 1 2 1 1 3 5 38 10 3 2 4 20 22 34 26 35 21 31 50 48 40 40 48 46 48 48 45 31 36 15 12 14 18 17 19 20 26 30
9 10 5 2 1 1 3 14 22 16 12 27 61 87 78 44 24 7 4 21 29 32 49 27 23 23 43 30 43 34 50 64 67 60 56 44 33 9 15 16 18 23 28 31 32
11 6 2 1 3 5 21 33 39 59 76 36 73 100 100 100 90 98 29 6 21 49 56 47 46 55 22 74 66 55 68 77 83 85 69 39 38 13 14 17 21 29 34 34 32
5 2 2 2 5 40 60 43 44 76 100 76 27 88 100 100 100 86 99 62 32 51 59 57 51 46 27 70 100 69 60 75 76 81 46 46 44 21 13 15 20 28 33 36 34
2 2 3 8 11 72 77 60 62 85 90 100 98 90 60 88 100 100 100 100 93 57 48 56 62 48 34 28 49 99 62 56 50 46 36 47 42 26 20 16 17 23 26 28 28
2 4 8 18 21 77 73 77 72 77 85 72 98 94 99 82 76 98 100 100 100 81 100 90 60 57 55 43 64 100 96 56 61 66 64 46 46 42 41 32 29 22 25 27 30
2 5 13 24 21 83 95 84 81 86 71 61 66 71 76 67 66 90 99 100 100 100 100 100 90 64 50 54 40 83 92 90 80 83 67 43 42 39 43 50 48 41 38 44 42
4 6 22 35 26 60 89 77 88 94 68 52 45 48 56 55 62 53 83 98 100 100 100 98 100 87 72 57 51 36 56 98 93 79 58 47 44 36 34 37 45 46 41 45 48
4 10 29 36 36 52 72 72 76 83 87 62 43 41 39 36 55 58 67 80 100 93 100 100 100 100 100 100 94 53 32 51 100 91 64 45 42 41 42 39 37 40 42 38 40
4 10 29 43 42 28 75 64 72 54 98 60 44 36 40 36 28 57 65 72 89 96 99 100 100 100 100 100 100 97 56 40 64 90 97 78 50 51 50 46 44 42 45 48 43
6 10 24 52 44 21 89 69 60 85 93 64 49 38 36 38 31 34 57 71 100 99 99 98 96 100 100 90 80 70 50 40 33 37 48 58 63 53 55 56 55 48 41 40 42
8 16 34 60 44 22 88 82 100 92 88 82 56 44 53 30 25 32 35 49 89 78 99 98 63 75 97 81 59 68 84 87 80 35 56 48 63 66 69 68 62 54 48 41 42
9 20 24 68 43 21 87 100 100 98 100 83 51 47 55 49 37 26 32 49 77 66 94 89 96 94 46 50 52 44 44 65 98 93 99 66 65 84 86 78 72 66 62 72 76
7 18 24 63 28 16 58 90 94 99 88 78 58 50 49 38 34 19 24 48 95 78 93 100 100 100 99 100 100 83 84 86 73 92 95 100 100 99 100 100 100 100 95 95 94
Wind_Speed
32 33 33 33 32 31 31 31 30 30 30 29 25 25 25 23 20 17 13 19 27 27 26 24 23 25 25 25 26 27 29 30 25 31 22 25 21 25 29 26 24 25 23 23 22
40 41 41 40 40 38 38 36 35 34 34 34 32 31 29 28 26 14 23 28 27 26 22 25 26 28 30 29 33 31 28 26 24 20 26 29 31 28 27 28 28 27 20 24 25
40 41 42 42 44 44 45 44 42 40 39 37 37 37 36 34 30 12 31 30 26 25 26 28 33 34 31 30 30 29 23 18 30 28 32 33 35 36 32 31 25 22 26 28 27
42 43 43 43 44 45 46 47 47 47 46 44 42 42 42 42 33 24 35 33 30 30 29 30 32 31 28 27 24 29 21 27 28 29 37 38 35 36 35 27 26 27 27 28 25
43 43 43 44 46 47 48 48 49 49 50 50 50 48 47 42 30 29 35 39 40 38 33 30 32 30 30 30 33 32 25 31 31 33 38 38 37 39 38 32 31 31 28 30 31
54 52 50 49 49 51 52 50 49 49 51 54 54 56 54 48 32 40 44 48 45 45 41 39 36 34 38 38 40 30 31 33 41 37 38 33 33 40 39 36 35 34 31 33 35
62 64 64 62 61 58 51 51 53 54 53 53 58 60 60 47 44 46 48 49 49 50 50 45 45 45 43 43 42 40 39 40 40 38 37 37 38 40 29 32 35 34 34 35 32
63 63 65 66 63 63 62 55 50 52 54 55 58 62 60 55 51 55 53 52 53 55 55 55 54 54 52 48 47 47 46 45 37 39 42 44 40 31 29 33 39 39 38 37 37
67 68 68 70 70 70 68 67 64 59 58 59 61 63 57 58 55 56 59 58 58 58 61 61 64 61 56 55 54 50 47 43 41 42 42 47 40 30 32 42 41 40 39 37 37
71 73 72 73 72 73 74 74 72 70 66 65 68 70 65 60 58 60 64 67 66 65 67 69 70 70 67 63 54 46 44 41 38 39 41 46 43 33 39 45 42 41 37 36 34
78 81 80 74 70 71 74 75 78 85 82 73 67 69 67 68 69 67 67 73 74 75 76 74 75 76 65 64 56 50 48 45 44 40 43 47 48 40 43 47 43 39 37 35 33
82 86 84 72 78 85 89 91 90 89 85 80 77 72 69 73 74 72 77 76 79 78 80 82 82 69 72 67 65 59 57 53 49 46 49 47 48 45 46 47 43 42 41 38 36
86 91 87 85 91 99 102 97 90 89 91 88 73 68 70 79 78 79 82 81 80 82 85 85 71 72 70 70 67 67 63 57 56 54 55 52 55 51 47 46 45 46 44 43 41
90 93 93 99 101 95 82 74 68 67 64 55 55 43 57 73 85 93 91 89 88 85 83 88 77 76 75 72 69 68 64 61 59 58 61 55 64 57 55 50 51 50 47 45 42
96 99 103 100 94 80 67 57 51 48 35 22 22 24 26 42 61 78 90 98 92 89 84 87 84 83 83 77 72 71 67 64 60 60 62 61 68 63 60 58 52 48 47 44 39
101 105 99 89 77 64 55 47 38 24 18 12 23 25 26 28 37 38 62 83 86 88 86 84 76 72 80 74 67 66 62 63 63 65 72 67 69 69 63 57 51 49 48 43 42
104 99 90 82 64 50 42 40 29 14 12 10 21 30 31 28 34 33 39 47 64 73 81 87 85 83 80 78 72 67 66 65 66 70 76 69 73 78 62 59 53 51 46 44 47
95 86 80 73 54 42 38 36 26 17 16 12 15 8 24 45 33 36 38 40 49 59 70 78 87 90 88 84 84 75 73 75 75 76 75 73 79 72 62 59 54 50 49 50 50
83 74 69 66 50 32 32 29 27 25 25 19 17 12 9 18 39 45 43 20 32 40 46 49 68 73 80 75 74 71 70 70 67 70 70 75 75 68 63 58 53 51 50 48 48
76 68 64 61 51 28 26 24 23 25 25 27 23 22 16 10 24 26 34 37 26 40 58 52 43 53 65 69 74 71 61 66 65 67 70 74 73 66 62 57 50 50 49 46 45
69 65 61 55 53 33 28 23 20 26 27 31 26 22 22 15 16 27 29 40 33 28 44 62 56 41 48 62 72 74 76 65 68 65 70 74 74 68 63 57 48 42 44 44 44
70 60 59 56 53 36 27 24 24 27 28 29 34 27 23 18 18 21 21 42 45 41 31 19 60 55 41 40 47 61 72 74 66 67 72 73 72 67 63 59 53 46 41 40 39
68 55 55 58 57 41 25 22 23 23 23 29 33 33 25 18 22 25 21 25 33 43 39 22 23 42 56 44 40 50 59 66 58 58 60 65 67 59 54 52 54 53 48 43 40
68 60 58 61 62 45 23 15 23 23 22 27 33 36 27 16 20 23 22 21 23 39 39 28 39 30 30 42 33 39 54 62 65 65 68 63 62 59 53 48 48 50 50 49 47
66 59 59 64 63 43 23 23 21 19 23 30 33 36 32 21 14 22 24 21 20 39 40 25 36 46 44 46 44 38 32 32 47 60 59 59 58 49 45 41 42 44 44 44 44
63 60 57 60 64 48 19 17 17 21 26 30 35 31 28 24 19 14 20 22 14 37 45 34 21 29 45 51 43 44 45 40 34 28 40 46 49 42 40 40 38 39 38 40 39
62 55 56 58 61 49 19 18 18 22 23 29 33 35 33 21 16 7 13 17 10 23 32 28 29 18 24 30 32 39 45 42 38 40 34 37 43 40 36 38 38 40 40 42 41
Wind_Direction
300 300 299 298 295 294 294 291 286 282 281 280 274 275 270 269 259 241 245 230 238 239 236 241 226 230 238 249 252 247 226 207 218 213 223 224 216 217 217 208 235 218 205 219 227
302 299 297 295 293 290 288 287 285 281 279 276 272 269 266 263 260 253 224 231 239 242 237 236 232 229 238 234 243 248 230 209 215 213 221 224 226 222 226 229 217 206 221 226 234
306 302 299 298 295 289 286 283 281 279 276 272 270 267 264 262 257 223 235 235 238 235 225 226 231 238 227 224 232 237 239 217 216 214 210 220 228 223 230 230 205 223 221 226 236
310 307 304 301 298 294 288 281 278 276 275 272 270 266 262 260 257 233 244 248 240 234 230 227 233 231 224 226 235 237 214 206 193 208 215 220 224 224 229 211 219 222 231 231 232
312 308 303 299 297 294 290 287 282 276 273 269 267 265 264 261 255 247 238 241 245 240 232 232 237 236 224 227 230 230 206 209 202 213 221 225 227 224 221 210 223 232 234 232 223
319 314 308 302 296 292 289 288 284 278 273 269 264 263 260 257 257 244 240 237 238 243 239 234 232 235 241 239 236 237 219 215 213 215 227 229 225 227 219 225 226 232 231 222 219
321 317 313 310 306 300 290 285 283 282 274 269 269 265 259 264 254 249 244 243 236 241 243 241 237 232 236 237 238 237 232 226 220 216 226 231 223 226 221 230 231 230 227 225 225
319 316 311 308 306 302 300 296 288 282 278 273 267 263 261 260 254 250 248 245 243 239 240 238 240 239 239 238 236 237 237 229 220 225 226 232 225 223 233 229 232 224 225 223 224
319 314 309 305 304 303 301 298 294 288 281 275 272 270 265 261 253 252 248 244 243 242 239 236 237 240 239 241 243 236 235 236 220 229 233 236 234 220 230 231 231 226 224 228 230
317 313 308 306 305 302 299 294 290 286 280 275 270 268 271 261 257 246 243 242 239 239 239 237 236 237 239 233 236 244 244 241 238 233 239 243 241 228 224 231 232 234 230 230 232
318 316 313 310 305 306 301 298 290 289 286 282 275 268 265 261 256 249 242 239 238 234 236 238 237 235 238 241 237 240 245 243 243 247 243 239 237 225 224 228 235 238 236 234 234
318 316 315 313 309 306 303 296 290 283 275 278 276 267 261 245 246 244 241 235 238 239 236 234 238 238 239 240 243 239 239 240 243 243 247 243 239 233 231 232 234 236 236 234 235
325 319 317 315 312 308 305 301 294 288 279 269 271 259 243 239 240 238 238 239 234 234 234 239 242 243 243 243 241 242 237 236 241 241 245 244 239 234 233 237 237 233 237 237 236
322 322 321 318 316 315 312 304 297 289 283 277 269 271 253 240 235 232 236 231 233 232 234 233 233 237 239 240 242 242 243 244 244 245 244 242 241 232 234 234 233 236 236 238 241
324 325 326 326 324 324 318 315 313 307 303 260 236 231 248 237 239 235 234 232 232 231 229 229 230 230 233 235 237 239 240 243 245 247 248 242 245 227 234 234 233 237 241 240 243
328 329 332 332 334 329 325 331 325 319 305 239 217 208 210 211 235 226 236 233 233 233 230 229 231 228 229 234 235 237 240 241 241 243 243 235 244 238 232 234 234 233 236 240 245
332 334 337 337 340 333 336 336 329 323 299 293 236 240 238 213 198 230 221 229 231 227 230 230 227 226 226 225 226 227 230 235 236 239 240 237 239 247 237 237 233 234 236 240 245
337 338 341 345 343 333 334 338 333 332 286 284 308 283 254 236 242 198 211 216 225 229 233 234 228 224 220 226 228 224 226 231 232 236 237 240 241 242 243 241 238 238 240 242 244
339 343 346 348 348 338 344 347 354 349 339 296 268 283 281 251 235 231 195 182 211 224 224 231 233 233 234 228 224 221 223 229 235 239 241 238 241 240 244 241 242 239 238 239 242
343 346 346 351 351 330 334 343 349 349 0 347 321 298 270 250 241 262 210 199 187 199 214 222 228 226 227 229 229 229 222 222 226 232 235 237 240 239 240 244 240 237 238 239 240
346 347 348 352 356 333 316 329 339 350 351 360 352 317 297 250 249 243 251 228 221 202 204 216 224 226 221 223 227 226 222 223 225 234 237 240 243 243 242 244 241 236 234 236 238
348 352 348 352 357 341 317 318 318 324 335 351 349 339 324 276 234 243 251 235 217 211 210 203 221 223 221 220 225 228 230 229 229 227 229 236 240 243 242 244 245 243 239 235 234
349 353 350 353 352 347 331 320 329 329 333 347 344 344 335 318 256 247 245 244 250 232 229 229 204 221 225 213 204 216 224 228 232 234 235 237 243 247 252 250 251 250 248 251 244
346 353 352 354 353 347 335 327 333 337 335 341 341 340 329 314 277 232 245 234 252 226 222 229 223 221 215 211 206 222 231 233 234 233 231 233 237 239 240 247 251 253 252 252 248
346 353 354 351 352 351 330 338 331 328 334 334 337 339 334 319 284 253 243 231 248 231 231 235 225 239 224 222 220 211 214 221 233 238 235 233 241 241 242 242 244 248 250 249 247
344 351 356 349 349 352 332 333 333 329 329 333 335 344 345 336 312 223 240 247 237 231 234 236 245 214 225 224 218 218 219 224 227 228 234 236 238 236 234 233 228 230 234 233 228
346 348 354 349 353 352 330 336 335 325 335 337 350 346 352 339 309 259 221 230 265 241 243 237 247 231 221 198 207 215 216 220 218 222 228 231 233 228 220 217 211 212 219 220 218